Regional Weather Roundup
Issued by NWS Upton, NY

Current Version | Previous Version | Text Only | Print | Product List | Glossary On
Versions: 1 2 3 4 5 6 7 8 9 10 11 12 13 14 15 16 17 18 19 20 21 22 23 24 25 26 27 28 29 30 31 32 33 34 35 36 37 38 39 40 41 42 43 44 45 46 47 48 49 50
000
ASUS41 KOKX 042105
RWROKX

REGIONAL WEATHER ROUNDUP
NATIONAL WEATHER SERVICE NEW YORK NY
400 PM EST WED MAR 04 2015

NOTE: "FAIR" INDICATES FEW OR NO CLOUDS BELOW 12,000 FEET WITH NO
SIGNIFICANT WEATHER AND/OR OBSTRUCTIONS TO VISIBILITY.

NYZ071-072-176-178-NJZ106-104-042200-
NEW YORK CITY METRO AREA


CITY           SKY/WX    TMP DP  RH WIND       PRES   REMARKS
CENTRAL PARK   CLOUDY    44  37  76 W8        29.90R HAZE
LAGUARDIA APRT CLOUDY    45  38  76 SW8       29.88R
KENNEDY INTL   LGT RAIN  40  36  86 SW15      29.90R FOG     WCI  32
NEWARK/LIBERTY CLOUDY    42  38  85 SW10      29.89R
BRNX BOT. GARD   N/A     45  37  76 SW2       29.89R
TETERBORO      CLOUDY    48  35  60 SW8       29.86R
$$

NYZ177-179-078>081-042200-
LONG ISLAND NEW YORK

CITY           SKY/WX    TMP DP  RH WIND       PRES   REMARKS
FARMINGDALE    LGT RAIN  41  38  89 SW7       29.89R FOG
ISLIP          LGT RAIN  39  35  86 SW9       29.88R FOG     WCI  33
SHIRLEY        CLOUDY    39  36  89 SW6       29.89R FOG     WCI  35
WESTHAMPTON    CLOUDY    37  33  85 SW8       29.89R FOG     WCI  31
MONTAUK POINT    N/A     41  34  76 SW8       29.86R
$$

NYZ052-065-067-042200-
HUDSON VALLEY

CITY           SKY/WX    TMP DP  RH WIND       PRES   REMARKS
WHITE PLAINS   CLOUDY    41  35  79 CALM      29.85R
NEWBURGH       NOT AVBL
MONTGOMERY     CLOUDY    40  33  76 S3        29.84R
POUGHKEEPSIE   CLOUDY    42  32  67 W8        29.84R
ALBANY         CLOUDY    37  26  64 NW8       29.85R WCI  31
$$

NJZ001-105-106-008-010-013-015-019>022-104-042200-
NEW JERSEY

CITY           SKY/WX    TMP DP  RH WIND       PRES   REMARKS
NEWARK/LIBERTY CLOUDY    42  38  85 SW10      29.89R
TETERBORO      CLOUDY    48  35  60 SW8       29.86R
CALDWELL       CLOUDY    45  34  65 SW3       29.87R
MORRISTOWN     CLOUDY    45  37  76 W7          N/A
SOMERVILLE     CLOUDY    43  39  86 S5        29.87R FOG
SUSSEX         CLOUDY    43  32  65 CALM      29.86R
ANDOVER          N/A     44  32  62 VRB5      29.86R
TRENTON        LGT RAIN  42  40  92 SW5       29.89F FOG
MILLVILLE      LGT RAIN  45  43  93 N5        29.90R FOG
ATLANTIC CITY  LGT RAIN  45  44  97 NW5       29.91R FOG
WRIGHTSTOWN    LGT RAIN  44  43  99 SW3       29.88R FOG
TOMS RIVER     CLOUDY    45  45 100 CALM      29.90R
BELMAR         CLOUDY    43  37  81 SW5       29.90R
$$

PAZ047>061-062-071-042200-
EASTERN PENNSYLVANIA

CITY           SKY/WX    TMP DP  RH WIND       PRES   REMARKS
PHILADELPHIA   LGT RAIN  42  40  92 S6        29.90F FOG
ALLENTOWN      CLOUDY    41  36  82 SW6       29.86F HAZE
SCRANTON       CLOUDY    40  32  73 SW8       29.84S WCI  34
$$

CTZ002-004>006-009-010-012-RIZ004-006-007-MAZ004-011-015-042200-
SOUTHERN NEW ENGLAND
 IN CT

CITY           SKY/WX    TMP DP  RH WIND       PRES   REMARKS
BRADLEY INTL   CLOUDY    43  31  62 W7        29.82R
HARTFORD       CLOUDY    43  32  65 SW9       29.84R
DANBURY        CLOUDY    41  31  67 W6        29.85R
WTRBRY/OXFORD  PTSUNNY   41  30  65 W7        29.84R
BRIDGEPORT     CLOUDY    37  34  89 SW7       29.87R FOG     WCI  32
MERIDEN        CLOUDY    43  33  68 CALM      29.85R
NEW HAVEN      CLOUDY    40  35  83 SW7       29.86R HAZE
CHESTER        FAIR      43  36  75 CALM      29.83R
GROTON         CLOUDY    38  35  89 W12       29.85R FOG     WCI  30
WILLIMANTIC    CLOUDY    41  33  73 W5        29.84R

 IN RI

CITY           SKY/WX    TMP DP  RH WIND       PRES   REMARKS
PROVIDENCE     CLOUDY    42  32  67 W9        29.80S
BLOCK ISLAND   CLOUDY    37  32  81 SW15      29.82R WCI  28
WESTERLY       CLOUDY    37  34  89 SW9       29.84R FOG     WCI  30

 IN MA

CITY           SKY/WX    TMP DP  RH WIND       PRES   REMARKS
BOSTON         CLOUDY    42  29  59 W13G23    29.78R
WORCESTER      CLOUDY    38  27  64 W14G24    29.76R WCI  30
WESTFIELD      CLOUDY    42  29  59 W10       29.82R
PROVINCETOWN   CLOUDY    36  34  93 SW12      29.77F WCI  27
NANTUCKET      CLOUDY    36  33  89 SW12      29.83R FOG     WCI  28
$$

ANZ330-335-338-340-345-350-353-355-042200-
COASTAL MARINE OBSERVATIONS


STATION/POSITION TIME  SKY/WX   TEMP    WIND        PRES    VSBY  WAVE
                                AIR SEA DIR/SP/G                  HT/PER
                 (UTC)          (F)     (DEG/KT/KT) (MB)    (MI)  (FT/S)
NY HARB ENTRANCE 2100            39 38  220/ 10/ 12 1012.8          5/ 9
4S FIRE IS       2100               32                N/A           6/ 9
20S FIRE ISLAND  2000               36              1011.7          6/ 8
23SW MTP         2100                                 N/A           8/11
HUDSON CANYON    NOT AVBL
EXECUTION ROCKS  NOT AVBL
WESTERN LI SOUND NOT AVBL
CENTRAL LI SOUND NOT AVBL
EASTERN LI SOUND NOT AVBL
ROBBINS REEF     2100            43     240/ 11/ 14 1010.9
$$


>>>>>>>>>>>>>>>>>>>>>>>>>>>> KEY <<<<<<<<<<<<<<<<<<<<<<<<<<<
>                                                          <
>     SKY/WX - SKY CONDITION/PRESENT WEATHER               <
>     TMP    - TEMPERATURE IN FAHRENHEIT                   <
>     DP     - DEWPOINT IN FAHRENHEIT                      <
>     RH     - RELATIVE HUMIDITY IN PERCENT                <
>     WIND   - DIRECTION AND SPEED IN MPH                  <
>     PRES   - MEAN SEA LEVEL PRESSURE IN INCHES OF HG     <
>     WCI    - WIND CHILL INDEX                            <
>     VSB    - VISIBILITY IN MILES                         <
>     HX     - HEAT INDEX                                  <
>     TC     - TEMPERATURE IN CELSIUS                      <
>     VRB    - VARIABLE WIND DIRECTION                     <
>                                                          <
>>>>>>>>>>>>>>>>>>>>>>>>>>>> KEY <<<<<<<<<<<<<<<<<<<<<<<<<<<




USA.gov is the U.S. government's official web portal to all federal, state and local government web resources and services.